Погода в Аиме

Россия / Хабаровский край     58°46′26″N   134°15′09″E
темп.,
°C
ветер,
м/с
пор.,
м/с
влажн.,
%
обл.,
%
осадки,
мм/ч
давл.,
гПа
погр.,
м
9 марта, вт
вт901:00−13ююз229793 0.4 100545
04:00−14ююз129797 0.6 100624
07:00−14юз1296100 0.4 100830
10:00−11з1294100 0.5 1009201
13:00−8сз3686100 0.3 1010892
16:00−8сз4683100 0.5 10111038
19:00−12зсз2293100 0.1 101321
22:00−14зюз119797 0.3 101620
10 марта, ср
ср1001:00−16юз1197100 0.1 101620
04:00−18ю229886 0.1 101721
07:00−20ююв2210086 0.0 101520
10:00−16ююв239593 0.0 1013153
13:00−11ю3687100 0.0 1010527
16:00−9ююз2491100 0.1 1008512
19:00−10ю1296100 0.4 101041
22:00−12зсз51285100 0.8 1013731
11 марта, чт
чт1101:00−15зсз2289100 0.0 101659
04:00−19зюз1297100 0.0 101820
07:00−18зюз1297100 0.1 101920
10:00−14з279193 0.1 1019583
13:00−12зсз5879100 0.3 10191544
16:00−11зсз5880100 0.4 10181421
19:00−15з1290100 0.1 101920
22:00−14ююв1197100 0.7 102020
12 марта, пт
пт1201:00−18юз129993 0.3 101920
04:00−18юз119896 0.4 101920
07:00−19ююз119994 0.1 101820
10:00−14ююв129597 0.1 1016220
13:00−9ююв2387100 0.1 1012560
16:00−8ююв2386100 0.1 1009612
19:00−9вюв1197100 0.3 100821
22:00−10в1197100 0.8 100821
13 марта, сб
сб1301:00−11вюв119798 0.4 100721
04:00−12вюв119798 0.6 100620
07:00−12вюв1197100 0.4 100620
10:00−8вюв1195100 1.1 1005136
13:00−3зсз2693100 0.4 1005619
16:00−2з348397 0.9 1004819
19:00−7ююз229187 0.1 100321
22:00−8ююв229394 0.1 100134